STARLINK-33892

Satellite information

Favourite Embed

Satellite Type and Status

PAYLOADIN ORBIT

Key statistics

Satellite STARLINK-33892 at a glance.

Uptime

225

Days in orbit

Revolutions

≈ 15.3

Per day

Orbit

LEO

Low Earth Orbit

Inclination

43.0

Latest

Satellite identification and parameters

Extended collection of information and parameters for STARLINK-33892.

Object identification

Identified? True

Debris? False

Object name: STARLINK-33892

International designator: 2025-091J

Object number (NORAD): 63783

Object ID (CCSDS): 63783

Country: UNITED STATES OF AMERICA (US)

Current information (Y/N): Y

RCS size: LARGE

Orbital parameters

Period: 94.265 minutes

Inclination: 43.0009 deg

SMA: 6861.085 km

Apoapsis: 484.267 km

Periapsis: 481.632 km

RAAN: 186.1877 deg

Eccentricy: 0.00019202

Argument of periapsis: 282.0408 deg

Mean anomaly: 78.0228 deg

Mean motion: 15.27613774 rev/day

Mean motion (dot): 0.00046022 rev/day2

B* drag term: 0.0016697656 1/REarth

Two-line elements (TLE)

Creation date: Dec. 12, 2025, 10:14 a.m.

Reference frame: TEME

Reference center: EARTH

Epoch: Dec. 12, 2025, 6:39 a.m. UTC

TLE line 0: 0 STARLINK-33892

TLE line 1: 1 63783U 25091J 25346.27752519 .00046022 00000-0 16698-2 0 9998

TLE line 2: 2 63783 43.0009 186.1877 0001920 282.0408 78.0228 15.27613774 35535

Live tracking on map

Real-time ground track for satellite STARLINK-33892.

In-orbit conjunctions

There are no conjunctions computed for STARLINK-33892, at the moment. Check back to stay up to date, as we update our databases every day.

Go to all conjunctions

Associated space launch

A batch of 28 satellites for the Starlink mega-constellation - SpaceX's project for space-based Internet communication system.

STARLINK-33892 was lifted into orbit during the mission ‘Falcon 9 Block 5 | Starlink Group 6-75’, on board a Falcon 9 space rocket.

The launch took place on May 2, 2025, 1:51 a.m. from Space Launch Complex 40.

For more information about the launch, click the button.

Launch to space Falcon 9 Block 5 | Starlink Group 6-75
Falcon 9 Block 5 | Starlink Group 6-75

Agency: SpaceX

Status: Launch Successful

Launch date: May 2, 2025, 1:51 a.m. UTC

Rocket: Falcon 9

Launch pad: Space Launch Complex 40

Location: Cape Canaveral SFS, FL, USA

...

Latest news about this satellite

News about space launch
Live coverage: SpaceX to launch 28 Starlink satellites on Falcon 9 rocket from Cape Canaveral

SpaceX will be aiming to complete its 440th successful booster landing with this mission, using a Falcon 9 first stage booster flying for an 18th time. Liftoff from pad 40 at Cape Canaveral Space Force Station is targeting 9:51 p.m. EDT (0151 UTC).

News about space launch
Launch Roundup: Starlink missions fill launch manifest, Biomass and Alpha launch

This week’s schedule includes up to six Starlink launches from Florida and California. Arianespace launched… The post Launch Roundup: Starlink missions fill launch manifest, Biomass and Alpha launch appeared first on NASASpaceFlight.com.


Newsletter sign-up

Weekly statistics, charts and insights to help you stay on top of the space industry.